Time,TemperatureF,DewpointF,PressureIn,WindDirection,WindDirectionDegrees,WindSpeedMPH,WindSpeedGustMPH,Humidity,HourlyPrecipIn,Conditions,Clouds,dailyrainin,SoftwareType,DateUTC
2013-04-03 00:00:00,29.7,13.7,30.23,WNW,295,4.0,8.0,51,0.00,,,0.00,WUHU216DAVISVP2,2013-04-03 04:00:00,
2013-04-03 00:03:00,29.7,13.7,30.23,WNW,297,4.0,8.0,51,0.00,,,0.00,WUHU216DAVISVP2,2013-04-03 04:03:00,
2013-04-03 00:08:00,29.6,14.1,30.23,NW,310,3.0,8.0,52,0.00,,,0.00,WUHU216DAVISVP2,2013-04-03 04:08:00,
2013-04-03 00:13:00,29.6,14.1,30.23,NW,316,4.0,7.0,52,0.00,,,0.00,WUHU216DAVISVP2,2013-04-03 04:13:00,
2013-04-03 00:18:00,29.5,14.0,30.22,NNW,342,4.0,7.0,52,0.00,,,0.00,WUHU216DAVISVP2,2013-04-03 04:18:00,
2013-04-03 00:24:00,29.5,14.0,30.22,NNW,343,4.0,7.0,52,0.00,,,0.00,WUHU216DAVISVP2,2013-04-03 04:24:00,
2013-04-03 00:29:00,29.2,14.2,30.22,NNW,330,4.0,5.0,53,0.00,,,0.00,WUHU216DAVISVP2,2013-04-03 04:29:00,
2013-04-03 00:34:00,29.2,14.6,30.23,NW,321,4.0,6.0,54,0.00,,,0.00,WUHU216DAVISVP2,2013-04-03 04:34:00,
2013-04-03 00:39:00,29.2,14.6,30.22,WNW,301,1.0,6.0,54,0.00,,,0.00,WUHU216DAVISVP2,2013-04-03 04:39:00,
2013-04-03 00:44:00,29.2,14.6,30.22,NW,324,2.0,6.0,54,0.00,,,0.00,WUHU216DAVISVP2,2013-04-03 04:44:00,
2013-04-03 00:49:00,29.0,14.8,30.23,WNW,298,0.0,5.0,55,0.00,,,0.00,WUHU216DAVISVP2,2013-04-03 04:49:00,
2013-04-03 00:54:00,28.8,14.7,30.23,WNW,296,1.0,5.0,55,0.00,,,0.00,WUHU216DAVISVP2,2013-04-03 04:54:00,
2013-04-03 00:59:00,28.7,15.0,30.23,WNW,296,2.0,5.0,56,0.00,,,0.00,WUHU216DAVISVP2,2013-04-03 04:59:00,
2013-04-03 01:04:00,28.6,15.3,30.23,WNW,296,0.0,4.0,57,0.00,,,0.00,WUHU216DAVISVP2,2013-04-03 05:04:00,
2013-04-03 01:09:00,28.4,15.5,30.23,WNW,296,1.0,4.0,58,0.00,,,0.00,WUHU216DAVISVP2,2013-04-03 05:09:00,
2013-04-03 01:14:00,28.3,15.4,30.23,WNW,296,0.0,4.0,58,0.00,,,0.00,WUHU216DAVISVP2,2013-04-03 05:14:00,
2013-04-03 01:19:00,28.3,15.4,30.23,WNW,296,2.0,4.0,58,0.00,,,0.00,WUHU216DAVISVP2,2013-04-03 05:19:00,
2013-04-03 01:24:00,28.4,15.5,30.23,WNW,296,2.0,5.0,58,0.00,,,0.00,WUHU216DAVISVP2,2013-04-03 05:24:00,
2013-04-03 01:29:00,28.5,15.2,30.24,WNW,300,1.0,5.0,57,0.00,,,0.00,WUHU216DAVISVP2,2013-04-03 05:29:00,
2013-04-03 01:35:00,28.4,15.5,30.24,WNW,300,0.0,5.0,58,0.00,,,0.00,WUHU216DAVISVP2,2013-04-03 05:35:00,
2013-04-03 01:40:00,28.2,15.3,30.24,WNW,300,0.0,4.0,58,0.00,,,0.00,WUHU216DAVISVP2,2013-04-03 05:40:00,
2013-04-03 01:45:00,28.2,15.3,30.24,WNW,300,0.0,4.0,58,0.00,,,0.00,WUHU216DAVISVP2,2013-04-03 05:45:00,
2013-04-03 01:50:00,28.2,15.3,30.24,WNW,300,0.0,4.0,58,0.00,,,0.00,WUHU216DAVISVP2,2013-04-03 05:50:00,
2013-04-03 01:55:00,28.0,15.5,30.24,WNW,300,1.0,3.0,59,0.00,,,0.00,WUHU216DAVISVP2,2013-04-03 05:55:00,
2013-04-03 02:00:00,27.9,15.5,30.24,WNW,300,0.0,3.0,59,0.00,,,0.00,WUHU216DAVISVP2,2013-04-03 06:00:00,
2013-04-03 02:05:00,27.8,15.8,30.24,WNW,300,1.0,4.0,60,0.00,,,0.00,WUHU216DAVISVP2,2013-04-03 06:05:00,
2013-04-03 02:10:00,27.8,15.8,30.24,WNW,299,1.0,4.0,60,0.00,,,0.00,WUHU216DAVISVP2,2013-04-03 06:10:00,
2013-04-03 02:15:00,27.7,16.0,30.24,WNW,299,2.0,4.0,61,0.00,,,0.00,WUHU216DAVISVP2,2013-04-03 06:15:00,
2013-04-03 02:20:00,27.6,15.9,30.24,WNW,299,1.0,5.0,61,0.00,,,0.00,WUHU216DAVISVP2,2013-04-03 06:20:00,
2013-04-03 02:26:00,27.6,15.9,30.24,WNW,300,4.0,5.0,61,0.00,,,0.00,WUHU216DAVISVP2,2013-04-03 06:26:00,
2013-04-03 02:31:00,27.5,15.9,30.24,WNW,300,2.0,5.0,61,0.00,,,0.00,WUHU216DAVISVP2,2013-04-03 06:31:00,
2013-04-03 02:36:00,27.5,15.9,30.24,WNW,300,2.0,4.0,61,0.00,,,0.00,WUHU216DAVISVP2,2013-04-03 06:36:00,
2013-04-03 02:41:00,27.5,15.9,30.24,WNW,300,1.0,4.0,61,0.00,,,0.00,WUHU216DAVISVP2,2013-04-03 06:41:00,
2013-04-03 02:46:00,27.4,15.8,30.24,WNW,300,0.0,4.0,61,0.00,,,0.00,WUHU216DAVISVP2,2013-04-03 06:46:00,
2013-04-03 02:51:00,27.2,15.6,30.24,WNW,299,0.0,4.0,61,0.00,,,0.00,WUHU216DAVISVP2,2013-04-03 06:51:00,
2013-04-03 02:56:00,27.0,15.4,30.24,WNW,299,1.0,3.0,61,0.00,,,0.00,WUHU216DAVISVP2,2013-04-03 06:56:00,
2013-04-03 03:01:00,26.8,15.2,30.25,WNW,299,0.0,3.0,61,0.00,,,0.00,WUHU216DAVISVP2,2013-04-03 07:01:00,
2013-04-03 03:07:00,26.7,15.5,30.24,WNW,299,0.0,3.0,62,0.00,,,0.00,WUHU216DAVISVP2,2013-04-03 07:07:00,
2013-04-03 03:12:00,26.6,15.4,30.25,WNW,299,0.0,2.0,62,0.00,,,0.00,WUHU216DAVISVP2,2013-04-03 07:12:00,
2013-04-03 03:17:00,26.6,15.4,30.25,WNW,299,0.0,2.0,62,0.00,,,0.00,WUHU216DAVISVP2,2013-04-03 07:17:00,
2013-04-03 03:22:00,26.3,15.5,30.25,WNW,299,0.0,1.0,63,0.00,,,0.00,WUHU216DAVISVP2,2013-04-03 07:22:00,
2013-04-03 03:27:00,26.2,15.4,30.25,WNW,299,0.0,1.0,63,0.00,,,0.00,WUHU216DAVISVP2,2013-04-03 07:27:00,
2013-04-03 03:32:00,26.1,15.6,30.25,WNW,299,0.0,1.0,64,0.00,,,0.00,WUHU216DAVISVP2,2013-04-03 07:32:00,
2013-04-03 03:37:00,26.1,15.6,30.25,WNW,299,0.0,1.0,64,0.00,,,0.00,WUHU216DAVISVP2,2013-04-03 07:37:00,
2013-04-03 03:42:00,26.0,15.5,30.25,WNW,299,0.0,2.0,64,0.00,,,0.00,WUHU216DAVISVP2,2013-04-03 07:42:00,
2013-04-03 03:47:00,25.9,15.4,30.25,WNW,299,0.0,3.0,64,0.00,,,0.00,WUHU216DAVISVP2,2013-04-03 07:47:00,
2013-04-03 03:53:00,25.9,15.8,30.25,WNW,299,1.0,4.0,65,0.00,,,0.00,WUHU216DAVISVP2,2013-04-03 07:53:00,
2013-04-03 03:58:00,26.0,15.9,30.25,West,270,1.0,5.0,65,0.00,,,0.00,WUHU216DAVISVP2,2013-04-03 07:58:00,
2013-04-03 04:03:00,26.0,15.9,30.25,West,270,2.0,5.0,65,0.00,,,0.00,WUHU216DAVISVP2,2013-04-03 08:03:00,
2013-04-03 04:08:00,26.0,15.9,30.25,West,270,2.0,5.0,65,0.00,,,0.00,WUHU216DAVISVP2,2013-04-03 08:08:00,
2013-04-03 04:13:00,26.0,15.9,30.25,West,273,0.0,5.0,65,0.00,,,0.00,WUHU216DAVISVP2,2013-04-03 08:13:00,
2013-04-03 04:18:00,25.9,15.8,30.25,West,273,1.0,5.0,65,0.00,,,0.00,WUHU216DAVISVP2,2013-04-03 08:18:00,
2013-04-03 04:23:00,25.8,16.1,30.25,West,273,1.0,3.0,66,0.00,,,0.00,WUHU216DAVISVP2,2013-04-03 08:23:00,
2013-04-03 04:28:00,25.8,16.1,30.25,West,273,2.0,4.0,66,0.00,,,0.00,WUHU216DAVISVP2,2013-04-03 08:28:00,
2013-04-03 04:34:00,25.9,16.2,30.25,West,273,0.0,4.0,66,0.00,,,0.00,WUHU216DAVISVP2,2013-04-03 08:34:00,
2013-04-03 04:39:00,25.8,16.1,30.25,West,274,2.0,4.0,66,0.00,,,0.00,WUHU216DAVISVP2,2013-04-03 08:39:00,
2013-04-03 04:44:00,25.8,16.1,30.25,West,274,1.0,4.0,66,0.00,,,0.00,WUHU216DAVISVP2,2013-04-03 08:44:00,
2013-04-03 04:49:00,25.7,16.0,30.25,West,274,1.0,2.0,66,0.00,,,0.00,WUHU216DAVISVP2,2013-04-03 08:49:00,
2013-04-03 04:54:00,25.6,16.2,30.25,West,274,0.0,2.0,67,0.00,,,0.00,WUHU216DAVISVP2,2013-04-03 08:54:00,
2013-04-03 04:59:00,25.5,16.1,30.26,West,274,1.0,2.0,67,0.00,,,0.00,WUHU216DAVISVP2,2013-04-03 08:59:00,
2013-04-03 05:04:00,25.4,16.0,30.25,West,274,0.0,1.0,67,0.00,,,0.00,WUHU216DAVISVP2,2013-04-03 09:04:00,
2013-04-03 05:09:00,25.4,16.0,30.25,West,274,1.0,1.0,67,0.00,,,0.00,WUHU216DAVISVP2,2013-04-03 09:09:00,
2013-04-03 05:14:00,25.3,16.3,30.26,West,274,1.0,4.0,68,0.00,,,0.00,WUHU216DAVISVP2,2013-04-03 09:14:00,
2013-04-03 05:19:00,25.2,16.2,30.26,West,274,2.0,4.0,68,0.00,,,0.00,WUHU216DAVISVP2,2013-04-03 09:19:00,
2013-04-03 05:24:00,25.2,16.2,30.26,West,274,1.0,6.0,68,0.00,,,0.00,WUHU216DAVISVP2,2013-04-03 09:24:00,
2013-04-03 05:30:00,25.2,16.1,30.26,West,274,1.0,6.0,68,0.00,,,0.00,WUHU216DAVISVP2,2013-04-03 09:30:00,
2013-04-03 05:31:00,25.2,16.1,30.27,West,274,1.0,6.0,68,0.00,,,0.00,WUHU216DAVISVP2,2013-04-03 09:31:00,
2013-04-03 05:35:00,25.2,16.5,30.27,West,274,1.0,4.0,69,0.00,,,0.00,WUHU216DAVISVP2,2013-04-03 09:35:00,
2013-04-03 05:40:00,25.3,16.6,30.27,West,274,1.0,5.0,69,0.00,,,0.00,WUHU216DAVISVP2,2013-04-03 09:40:00,
2013-04-03 05:45:00,25.4,16.4,30.27,West,271,3.0,5.0,68,0.00,,,0.00,WUHU216DAVISVP2,2013-04-03 09:45:00,
2013-04-03 05:50:00,25.4,16.4,30.27,SW,224,0.0,5.0,68,0.00,,,0.00,WUHU216DAVISVP2,2013-04-03 09:50:00,
2013-04-03 05:55:00,25.4,16.4,30.27,SW,224,1.0,4.0,68,0.00,,,0.00,WUHU216DAVISVP2,2013-04-03 09:55:00,
2013-04-03 06:00:00,25.5,16.5,30.27,SW,224,1.0,4.0,68,0.00,,,0.00,WUHU216DAVISVP2,2013-04-03 10:00:00,
2013-04-03 06:06:00,25.5,16.5,30.27,SW,224,0.0,4.0,68,0.00,,,0.00,WUHU216DAVISVP2,2013-04-03 10:06:00,
2013-04-03 06:11:00,25.5,16.5,30.27,SW,224,0.0,3.0,68,0.00,,,0.00,WUHU216DAVISVP2,2013-04-03 10:11:00,
2013-04-03 06:16:00,25.4,16.4,30.27,SW,224,2.0,3.0,68,0.00,,,0.00,WUHU216DAVISVP2,2013-04-03 10:16:00,
2013-04-03 06:21:00,25.3,16.6,30.28,SW,224,1.0,3.0,69,0.00,,,0.00,WUHU216DAVISVP2,2013-04-03 10:21:00,
2013-04-03 06:27:00,25.2,16.5,30.28,SW,224,2.0,3.0,69,0.00,,,0.00,WUHU216DAVISVP2,2013-04-03 10:27:00,
2013-04-03 06:32:00,25.1,16.4,30.28,SW,224,1.0,4.0,69,0.00,,,0.00,WUHU216DAVISVP2,2013-04-03 10:32:00,
2013-04-03 06:37:00,25.1,16.4,30.28,SW,224,1.0,4.0,69,0.00,,,0.00,WUHU216DAVISVP2,2013-04-03 10:37:00,
2013-04-03 06:42:00,25.2,16.5,30.28,WSW,252,1.0,5.0,69,0.00,,,0.00,WUHU216DAVISVP2,2013-04-03 10:42:00,
2013-04-03 06:47:00,25.2,16.5,30.28,WSW,252,2.0,5.0,69,0.00,,,0.00,WUHU216DAVISVP2,2013-04-03 10:47:00,
2013-04-03 06:52:00,25.2,16.8,30.29,WSW,252,0.0,4.0,70,0.00,,,0.00,WUHU216DAVISVP2,2013-04-03 10:52:00,
2013-04-03 06:57:00,25.2,16.8,30.29,WSW,252,1.0,4.0,70,0.00,,,0.00,WUHU216DAVISVP2,2013-04-03 10:57:00,
2013-04-03 07:02:00,25.1,16.7,30.29,WSW,252,1.0,2.0,70,0.00,,,0.00,WUHU216DAVISVP2,2013-04-03 11:02:00,
2013-04-03 07:07:00,24.9,16.9,30.29,WSW,252,0.0,2.0,71,0.00,,,0.00,WUHU216DAVISVP2,2013-04-03 11:07:00,
2013-04-03 07:10:00,24.9,16.9,30.30,WSW,252,1.0,2.0,71,0.00,,,0.00,WUHU216DAVISVP2,2013-04-03 11:10:00,
2013-04-03 07:12:00,24.9,16.9,30.30,WSW,252,1.0,2.0,71,0.00,,,0.00,WUHU216DAVISVP2,2013-04-03 11:12:00,
2013-04-03 07:18:00,24.9,16.9,30.30,WSW,252,0.0,3.0,71,0.00,,,0.00,WUHU216DAVISVP2,2013-04-03 11:18:00,
2013-04-03 07:23:00,24.9,16.9,30.30,WSW,252,1.0,3.0,71,0.00,,,0.00,WUHU216DAVISVP2,2013-04-03 11:23:00,
2013-04-03 07:28:00,24.9,16.9,30.30,WSW,252,1.0,3.0,71,0.00,,,0.00,WUHU216DAVISVP2,2013-04-03 11:28:00,
2013-04-03 07:33:00,24.8,17.1,30.30,West,281,2.0,6.0,72,0.00,,,0.00,WUHU216DAVISVP2,2013-04-03 11:33:00,
2013-04-03 07:38:00,24.7,17.0,30.30,West,281,2.0,6.0,72,0.00,,,0.00,WUHU216DAVISVP2,2013-04-03 11:38:00,
2013-04-03 07:43:00,25.1,17.4,30.31,West,281,0.0,5.0,72,0.00,,,0.00,WUHU216DAVISVP2,2013-04-03 11:43:00,
2013-04-03 07:48:00,25.1,17.4,30.31,West,281,1.0,4.0,72,0.00,,,0.00,WUHU216DAVISVP2,2013-04-03 11:48:00,
2013-04-03 07:53:00,25.1,17.4,30.31,West,281,2.0,3.0,72,0.00,,,0.00,WUHU216DAVISVP2,2013-04-03 11:53:00,
2013-04-03 07:58:00,25.4,17.7,30.31,West,281,2.0,5.0,72,0.00,,,0.00,WUHU216DAVISVP2,2013-04-03 11:58:00,
2013-04-03 08:03:00,25.7,18.0,30.31,WNW,296,4.0,6.0,72,0.00,,,0.00,WUHU216DAVISVP2,2013-04-03 12:03:00,
2013-04-03 08:08:00,26.1,18.4,30.31,WNW,296,3.0,6.0,72,0.00,,,0.00,WUHU216DAVISVP2,2013-04-03 12:08:00,
2013-04-03 08:13:00,26.3,18.5,30.31,WNW,296,0.0,5.0,72,0.00,,,0.00,WUHU216DAVISVP2,2013-04-03 12:13:00,
2013-04-03 08:19:00,26.7,18.9,30.31,NW,315,2.0,6.0,72,0.00,,,0.00,WUHU216DAVISVP2,2013-04-03 12:19:00,
2013-04-03 08:24:00,27.2,19.4,30.31,NW,312,4.0,7.0,72,0.00,,,0.00,WUHU216DAVISVP2,2013-04-03 12:24:00,
2013-04-03 08:29:00,27.6,19.8,30.31,NNW,336,6.0,7.0,72,0.00,,,0.00,WUHU216DAVISVP2,2013-04-03 12:29:00,
2013-04-03 08:34:00,28.1,20.0,30.31,North,350,4.0,8.0,71,0.00,,,0.00,WUHU216DAVISVP2,2013-04-03 12:34:00,
2013-04-03 08:39:00,28.5,20.3,30.32,WNW,299,6.0,8.0,71,0.00,,,0.00,WUHU216DAVISVP2,2013-04-03 12:39:00,
2013-04-03 08:44:00,28.7,20.5,30.32,NW,304,4.0,10.0,71,0.00,,,0.00,WUHU216DAVISVP2,2013-04-03 12:44:00,
2013-04-03 08:47:00,28.9,20.7,30.33,North,11,7.0,10.0,71,0.00,,,0.00,WUHU216DAVISVP2,2013-04-03 12:47:00,
2013-04-03 08:49:00,28.9,20.7,30.33,North,11,7.0,10.0,71,0.00,,,0.00,WUHU216DAVISVP2,2013-04-03 12:49:00,
2013-04-03 08:54:00,29.3,21.1,30.33,WNW,293,4.0,10.0,71,0.00,,,0.00,WUHU216DAVISVP2,2013-04-03 12:54:00,
2013-04-03 08:59:00,29.7,21.4,30.33,NNW,330,6.0,10.0,71,0.00,,,0.00,WUHU216DAVISVP2,2013-04-03 12:59:00,
2013-04-03 09:04:00,30.1,21.5,30.34,NNE,14,8.0,9.0,70,0.00,,,0.00,WUHU216DAVISVP2,2013-04-03 13:04:00,
2013-04-03 09:09:00,30.1,21.2,30.34,NNW,342,9.0,12.0,69,0.00,,,0.00,WUHU216DAVISVP2,2013-04-03 13:09:00,
2013-04-03 09:14:00,30.0,20.8,30.34,North,5,3.0,12.0,68,0.00,,,0.00,WUHU216DAVISVP2,2013-04-03 13:14:00,
2013-04-03 09:19:00,30.0,20.8,30.34,NNE,24,8.0,12.0,68,0.00,,,0.00,WUHU216DAVISVP2,2013-04-03 13:19:00,
2013-04-03 09:24:00,30.3,20.6,30.35,NNW,337,6.0,12.0,67,0.00,,,0.00,WUHU216DAVISVP2,2013-04-03 13:24:00,
2013-04-03 09:29:00,30.5,20.8,30.35,NNW,337,6.0,11.0,67,0.00,,,0.00,WUHU216DAVISVP2,2013-04-03 13:29:00,
2013-04-03 09:34:00,30.7,21.1,30.36,North,355,8.0,11.0,67,0.00,,,0.00,WUHU216DAVISVP2,2013-04-03 13:34:00,
2013-04-03 09:39:00,30.7,20.7,30.36,NNE,12,6.0,11.0,66,0.00,,,0.00,WUHU216DAVISVP2,2013-04-03 13:39:00,
2013-04-03 09:45:00,30.9,20.6,30.35,NW,313,11.0,11.0,65,0.00,,,0.00,WUHU216DAVISVP2,2013-04-03 13:45:00,
2013-04-03 09:50:00,31.2,19.7,30.36,North,5,5.0,11.0,62,0.00,,,0.00,WUHU216DAVISVP2,2013-04-03 13:50:00,
2013-04-03 09:55:00,31.6,18.9,30.36,NE,44,4.0,11.0,59,0.00,,,0.00,WUHU216DAVISVP2,2013-04-03 13:55:00,
2013-04-03 10:00:00,31.5,18.4,30.36,NNE,25,6.0,10.0,58,0.00,,,0.00,WUHU216DAVISVP2,2013-04-03 14:00:00,
2013-04-03 10:05:00,31.3,18.7,30.36,North,355,6.0,10.0,59,0.00,,,0.00,WUHU216DAVISVP2,2013-04-03 14:05:00,
2013-04-03 10:10:00,32.1,18.6,30.36,NNE,28,7.0,12.0,57,0.00,,,0.00,WUHU216DAVISVP2,2013-04-03 14:10:00,
2013-04-03 10:15:00,32.3,17.0,30.36,NNW,346,6.0,13.0,53,0.00,,,0.00,WUHU216DAVISVP2,2013-04-03 14:15:00,
2013-04-03 10:20:00,32.4,15.8,30.36,North,355,6.0,13.0,50,0.00,,,0.00,WUHU216DAVISVP2,2013-04-03 14:20:00,
2013-04-03 10:25:00,32.2,15.6,30.36,NNW,346,7.0,14.0,50,0.00,,,0.00,WUHU216DAVISVP2,2013-04-03 14:25:00,
2013-04-03 10:31:00,32.5,16.4,30.36,NNW,335,4.0,14.0,51,0.00,,,0.00,WUHU216DAVISVP2,2013-04-03 14:31:00,
2013-04-03 10:36:00,33.0,16.3,30.36,NE,45,9.0,11.0,50,0.00,,,0.00,WUHU216DAVISVP2,2013-04-03 14:36:00,
2013-04-03 10:41:00,33.1,15.9,30.37,NNW,340,10.0,13.0,49,0.00,,,0.00,WUHU216DAVISVP2,2013-04-03 14:41:00,
2013-04-03 10:46:00,33.5,15.8,30.37,NW,314,10.0,13.0,48,0.00,,,0.00,WUHU216DAVISVP2,2013-04-03 14:46:00,
2013-04-03 10:51:00,33.4,15.2,30.37,NW,318,9.0,12.0,47,0.00,,,0.00,WUHU216DAVISVP2,2013-04-03 14:51:00,
2013-04-03 10:56:00,33.8,15.2,30.38,NNW,348,6.0,13.0,46,0.00,,,0.00,WUHU216DAVISVP2,2013-04-03 14:56:00,
2013-04-03 11:01:00,34.1,15.9,30.38,NNW,337,8.0,13.0,47,0.00,,,0.00,WUHU216DAVISVP2,2013-04-03 15:01:00,
2013-04-03 11:07:00,34.3,15.0,30.38,ENE,63,7.0,12.0,45,0.00,,,0.00,WUHU216DAVISVP2,2013-04-03 15:07:00,
2013-04-03 11:12:00,34.1,14.3,30.38,NW,321,6.0,14.0,44,0.00,,,0.00,WUHU216DAVISVP2,2013-04-03 15:12:00,
2013-04-03 11:17:00,34.1,13.2,30.38,NW,313,7.0,14.0,42,0.00,,,0.00,WUHU216DAVISVP2,2013-04-03 15:17:00,
2013-04-03 11:22:00,34.7,13.8,30.38,North,5,10.0,13.0,42,0.00,,,0.00,WUHU216DAVISVP2,2013-04-03 15:22:00,
2013-04-03 11:27:00,34.5,13.0,30.38,NNW,329,4.0,16.0,41,0.00,,,0.00,WUHU216DAVISVP2,2013-04-03 15:27:00,
2013-04-03 11:32:00,34.9,13.4,30.38,NNW,328,8.0,15.0,41,0.00,,,0.00,WUHU216DAVISVP2,2013-04-03 15:32:00,
2013-04-03 11:37:00,34.8,12.7,30.38,North,5,8.0,13.0,40,0.00,,,0.00,WUHU216DAVISVP2,2013-04-03 15:37:00,
2013-04-03 11:42:00,35.2,13.7,30.38,WNW,298,10.0,14.0,41,0.00,,,0.00,WUHU216DAVISVP2,2013-04-03 15:42:00,
2013-04-03 11:48:00,35.4,13.8,30.38,NE,36,9.0,14.0,41,0.00,,,0.00,WUHU216DAVISVP2,2013-04-03 15:48:00,
2013-04-03 11:53:00,35.3,12.6,30.39,NNW,336,6.0,15.0,39,0.00,,,0.00,WUHU216DAVISVP2,2013-04-03 15:53:00,
2013-04-03 11:58:00,35.5,12.8,30.39,North,11,9.0,15.0,39,0.00,,,0.00,WUHU216DAVISVP2,2013-04-03 15:58:00,
2013-04-03 12:03:00,35.5,12.8,30.39,North,11,9.0,15.0,39,0.00,,,0.00,WUHU216DAVISVP2,2013-04-03 16:03:00,
2013-04-03 12:08:00,36.1,12.1,30.39,North,360,9.0,14.0,37,0.00,,,0.00,WUHU216DAVISVP2,2013-04-03 16:08:00,
2013-04-03 12:13:00,36.1,12.1,30.39,WNW,300,7.0,19.0,37,0.00,,,0.00,WUHU216DAVISVP2,2013-04-03 16:13:00,
2013-04-03 12:18:00,36.8,13.3,30.39,NE,43,8.0,19.0,38,0.00,,,0.00,WUHU216DAVISVP2,2013-04-03 16:18:00,
2013-04-03 12:23:00,37.3,11.9,30.39,North,355,6.0,12.0,35,0.00,,,0.00,WUHU216DAVISVP2,2013-04-03 16:23:00,
2013-04-03 12:28:00,37.6,13.4,30.39,NNW,344,11.0,13.0,37,0.00,,,0.00,WUHU216DAVISVP2,2013-04-03 16:28:00,
2013-04-03 12:33:00,37.4,12.6,30.39,North,5,10.0,14.0,36,0.00,,,0.00,WUHU216DAVISVP2,2013-04-03 16:33:00,
2013-04-03 12:38:00,37.3,13.8,30.39,NNW,332,8.0,14.0,38,0.00,,,0.00,WUHU216DAVISVP2,2013-04-03 16:38:00,
2013-04-03 12:44:00,37.3,13.4,30.39,North,350,12.0,14.0,37,0.00,,,0.00,WUHU216DAVISVP2,2013-04-03 16:44:00,
2013-04-03 12:49:00,37.3,13.4,30.39,NNE,26,10.0,14.0,37,0.00,,,0.00,WUHU216DAVISVP2,2013-04-03 16:49:00,
2013-04-03 12:54:00,37.1,13.0,30.38,NW,316,5.0,12.0,37,0.00,,,0.00,WUHU216DAVISVP2,2013-04-03 16:54:00,
2013-04-03 12:59:00,37.5,13.3,30.39,North,360,7.0,18.0,37,0.00,,,0.00,WUHU216DAVISVP2,2013-04-03 16:59:00,
2013-04-03 13:04:00,37.5,14.0,30.38,NNW,348,6.0,18.0,38,0.00,,,0.00,WUHU216DAVISVP2,2013-04-03 17:04:00,
2013-04-03 13:09:00,37.4,13.9,30.38,NW,312,10.0,18.0,38,0.00,,,0.00,WUHU216DAVISVP2,2013-04-03 17:09:00,
2013-04-03 13:14:00,38.4,14.4,30.38,NW,317,11.0,14.0,37,0.00,,,0.00,WUHU216DAVISVP2,2013-04-03 17:14:00,
2013-04-03 13:19:00,38.3,14.1,30.38,NW,317,7.0,14.0,37,0.00,,,0.00,WUHU216DAVISVP2,2013-04-03 17:19:00,
2013-04-03 13:24:00,38.6,14.9,30.37,NNE,17,14.0,14.0,38,0.00,,,0.00,WUHU216DAVISVP2,2013-04-03 17:24:00,
2013-04-03 13:29:00,38.9,15.2,30.37,NE,39,7.0,14.0,38,0.00,,,0.00,WUHU216DAVISVP2,2013-04-03 17:29:00,
2013-04-03 13:35:00,39.0,14.7,30.37,NE,43,15.0,19.0,37,0.00,,,0.00,WUHU216DAVISVP2,2013-04-03 17:35:00,
2013-04-03 13:40:00,38.8,14.1,30.37,North,10,10.0,19.0,36,0.00,,,0.00,WUHU216DAVISVP2,2013-04-03 17:40:00,
2013-04-03 13:45:00,38.9,14.6,30.36,North,355,8.0,15.0,37,0.00,,,0.00,WUHU216DAVISVP2,2013-04-03 17:45:00,
2013-04-03 13:50:00,39.2,14.2,30.37,WNW,303,11.0,12.0,36,0.00,,,0.00,WUHU216DAVISVP2,2013-04-03 17:50:00,
2013-04-03 13:56:00,39.1,14.8,30.37,NNE,28,9.0,16.0,37,0.00,,,0.00,WUHU216DAVISVP2,2013-04-03 17:56:00,
2013-04-03 14:01:00,39.1,13.5,30.37,NNE,24,8.0,16.0,35,0.00,,,0.00,WUHU216DAVISVP2,2013-04-03 18:01:00,
2013-04-03 14:06:00,39.9,15.1,30.36,NNW,345,5.0,16.0,36,0.00,,,0.00,WUHU216DAVISVP2,2013-04-03 18:06:00,
2013-04-03 14:11:00,39.7,14.7,30.35,NNW,333,6.0,15.0,36,0.00,,,0.00,WUHU216DAVISVP2,2013-04-03 18:11:00,
2013-04-03 14:16:00,39.7,14.0,30.36,NNE,22,15.0,15.0,35,0.00,,,0.00,WUHU216DAVISVP2,2013-04-03 18:16:00,
2013-04-03 14:21:00,39.8,14.8,30.36,NNW,341,13.0,15.0,36,0.00,,,0.00,WUHU216DAVISVP2,2013-04-03 18:21:00,
2013-04-03 14:27:00,40.2,14.5,30.37,NNW,331,7.0,15.0,35,0.00,,,0.00,WUHU216DAVISVP2,2013-04-03 18:27:00,
2013-04-03 14:32:00,40.0,13.0,30.36,NW,319,4.0,15.0,33,0.00,,,0.00,WUHU216DAVISVP2,2013-04-03 18:32:00,
2013-04-03 14:37:00,40.1,13.0,30.36,NNW,327,10.0,13.0,33,0.00,,,0.00,WUHU216DAVISVP2,2013-04-03 18:37:00,
2013-04-03 14:42:00,40.6,14.8,30.37,NNW,329,6.0,12.0,35,0.00,,,0.00,WUHU216DAVISVP2,2013-04-03 18:42:00,
2013-04-03 14:47:00,40.1,13.0,30.37,WNW,301,9.0,16.0,33,0.00,,,0.00,WUHU216DAVISVP2,2013-04-03 18:47:00,
2013-04-03 14:52:00,40.0,13.0,30.37,WNW,287,7.0,16.0,33,0.00,,,0.00,WUHU216DAVISVP2,2013-04-03 18:52:00,
2013-04-03 14:58:00,39.8,13.5,30.37,NNW,347,1.0,14.0,34,0.00,,,0.00,WUHU216DAVISVP2,2013-04-03 18:58:00,
2013-04-03 15:03:00,40.1,14.4,30.37,East,92,1.0,12.0,35,0.00,,,0.00,WUHU216DAVISVP2,2013-04-03 19:03:00,
2013-04-03 15:08:00,40.9,13.7,30.37,NNE,31,5.0,12.0,33,0.00,,,0.00,WUHU216DAVISVP2,2013-04-03 19:08:00,
2013-04-03 15:10:00,40.8,14.6,30.37,North,5,9.0,12.0,34,0.00,,,0.00,WUHU216DAVISVP2,2013-04-03 19:10:00,
2013-04-03 15:13:00,40.8,14.6,30.37,North,5,9.0,12.0,34,0.00,,,0.00,WUHU216DAVISVP2,2013-04-03 19:13:00,
2013-04-03 15:18:00,40.8,14.6,30.37,North,5,9.0,12.0,34,0.00,,,0.00,WUHU216DAVISVP2,2013-04-03 19:18:00,
2013-04-03 15:22:00,40.6,14.2,30.37,ENE,70,5.0,8.0,34,0.00,,,0.00,WUHU216DAVISVP2,2013-04-03 19:22:00,
2013-04-03 15:23:00,40.6,14.2,30.37,ENE,70,5.0,8.0,34,0.00,,,0.00,WUHU216DAVISVP2,2013-04-03 19:23:00,
2013-04-03 15:28:00,40.6,14.2,30.37,ENE,70,5.0,8.0,34,0.00,,,0.00,WUHU216DAVISVP2,2013-04-03 19:28:00,
2013-04-03 15:33:00,41.2,14.7,30.36,ENE,72,5.0,7.0,34,0.00,,,0.00,WUHU216DAVISVP2,2013-04-03 19:33:00,
2013-04-03 15:38:00,42.1,15.7,30.36,NNW,346,7.0,11.0,34,0.00,,,0.00,WUHU216DAVISVP2,2013-04-03 19:38:00,
2013-04-03 15:43:00,42.4,14.4,30.36,NW,309,8.0,11.0,32,0.00,,,0.00,WUHU216DAVISVP2,2013-04-03 19:43:00,
2013-04-03 15:48:00,41.9,13.2,30.35,NNW,340,6.0,12.0,31,0.00,,,0.00,WUHU216DAVISVP2,2013-04-03 19:48:00,
2013-04-03 15:53:00,41.8,13.1,30.35,NNE,17,6.0,12.0,31,0.00,,,0.00,WUHU216DAVISVP2,2013-04-03 19:53:00,
2013-04-03 15:58:00,41.8,15.2,30.36,ENE,62,5.0,10.0,34,0.00,,,0.00,WUHU216DAVISVP2,2013-04-03 19:58:00,
2013-04-03 16:04:00,42.1,14.1,30.36,North,355,2.0,7.0,32,0.00,,,0.00,WUHU216DAVISVP2,2013-04-03 20:04:00,
2013-04-03 16:09:00,42.2,14.9,30.36,NE,53,7.0,9.0,33,0.00,,,0.00,WUHU216DAVISVP2,2013-04-03 20:09:00,
2013-04-03 16:14:00,42.0,14.7,30.36,North,349,1.0,9.0,33,0.00,,,0.00,WUHU216DAVISVP2,2013-04-03 20:14:00,
2013-04-03 16:19:00,41.9,14.8,30.36,NNE,17,2.0,9.0,33,0.00,,,0.00,WUHU216DAVISVP2,2013-04-03 20:19:00,
2013-04-03 16:24:00,41.7,13.8,30.36,NW,310,6.0,12.0,32,0.00,,,0.00,WUHU216DAVISVP2,2013-04-03 20:24:00,
2013-04-03 16:29:00,41.8,14.8,30.36,West,261,5.0,12.0,33,0.00,,,0.00,WUHU216DAVISVP2,2013-04-03 20:29:00,
2013-04-03 16:34:00,42.5,14.7,30.36,WSW,257,3.0,6.0,32,0.00,,,0.00,WUHU216DAVISVP2,2013-04-03 20:34:00,
2013-04-03 16:40:00,42.7,13.4,30.36,WNW,289,0.0,6.0,30,0.00,,,0.00,WUHU216DAVISVP2,2013-04-03 20:40:00,
2013-04-03 16:45:00,43.2,14.6,30.35,SSE,158,0.0,5.0,31,0.00,,,0.00,WUHU216DAVISVP2,2013-04-03 20:45:00,
2013-04-03 16:50:00,43.6,14.7,30.35,WSW,248,2.0,4.0,31,0.00,,,0.00,WUHU216DAVISVP2,2013-04-03 20:50:00,
2013-04-03 16:55:00,44.0,15.3,30.34,NNE,23,4.0,6.0,31,0.00,,,0.00,WUHU216DAVISVP2,2013-04-03 20:55:00,
2013-04-03 17:00:00,43.4,14.0,30.34,WNW,286,5.0,7.0,30,0.00,,,0.00,WUHU216DAVISVP2,2013-04-03 21:00:00,
2013-04-03 17:05:00,43.1,15.0,30.34,North,360,7.0,7.0,32,0.00,,,0.00,WUHU216DAVISVP2,2013-04-03 21:05:00,
2013-04-03 17:10:00,43.3,15.2,30.34,NW,325,3.0,7.0,32,0.00,,,0.00,WUHU216DAVISVP2,2013-04-03 21:10:00,
2013-04-03 17:15:00,43.4,15.5,30.35,WNW,303,5.0,9.0,32,0.00,,,0.00,WUHU216DAVISVP2,2013-04-03 21:15:00,
2013-04-03 17:21:00,43.0,14.2,30.35,WNW,291,5.0,10.0,31,0.00,,,0.00,WUHU216DAVISVP2,2013-04-03 21:21:00,
2013-04-03 17:26:00,42.8,14.2,30.35,North,360,5.0,10.0,31,0.00,,,0.00,WUHU216DAVISVP2,2013-04-03 21:26:00,
2013-04-03 17:31:00,42.7,13.9,30.35,NW,318,0.0,8.0,31,0.00,,,0.00,WUHU216DAVISVP2,2013-04-03 21:31:00,
2013-04-03 17:36:00,42.7,13.9,30.35,North,360,4.0,8.0,31,0.00,,,0.00,WUHU216DAVISVP2,2013-04-03 21:36:00,
2013-04-03 17:41:00,42.5,13.7,30.36,NNW,338,4.0,8.0,31,0.00,,,0.00,WUHU216DAVISVP2,2013-04-03 21:41:00,
2013-04-03 17:46:00,42.7,13.2,30.35,WNW,302,4.0,9.0,30,0.00,,,0.00,WUHU216DAVISVP2,2013-04-03 21:46:00,
2013-04-03 17:51:00,42.4,13.9,30.35,ENE,69,6.0,9.0,31,0.00,,,0.00,WUHU216DAVISVP2,2013-04-03 21:51:00,
2013-04-03 17:56:00,42.5,15.2,30.35,ENE,67,6.0,7.0,33,0.00,,,0.00,WUHU216DAVISVP2,2013-04-03 21:56:00,
2013-04-03 18:02:00,42.8,14.0,30.35,NE,53,5.0,7.0,31,0.00,,,0.00,WUHU216DAVISVP2,2013-04-03 22:02:00,
2013-04-03 18:07:00,42.8,14.2,30.35,NE,53,1.0,7.0,31,0.00,,,0.00,WUHU216DAVISVP2,2013-04-03 22:07:00,
2013-04-03 18:12:00,43.6,14.0,30.35,East,82,1.0,6.0,30,0.00,,,0.00,WUHU216DAVISVP2,2013-04-03 22:12:00,
2013-04-03 18:17:00,43.8,14.3,30.34,ENE,73,2.0,5.0,30,0.00,,,0.00,WUHU216DAVISVP2,2013-04-03 22:17:00,
2013-04-03 18:22:00,43.8,15.8,30.34,NE,46,2.0,6.0,32,0.00,,,0.00,WUHU216DAVISVP2,2013-04-03 22:22:00,
2013-04-03 18:27:00,43.6,14.0,30.35,NNE,19,3.0,6.0,30,0.00,,,0.00,WUHU216DAVISVP2,2013-04-03 22:27:00,
2013-04-03 18:32:00,43.3,13.7,30.35,NNE,29,5.0,7.0,30,0.00,,,0.00,WUHU216DAVISVP2,2013-04-03 22:32:00,
2013-04-03 18:37:00,43.0,13.4,30.35,North,11,2.0,7.0,30,0.00,,,0.00,WUHU216DAVISVP2,2013-04-03 22:37:00,
2013-04-03 18:42:00,42.9,14.1,30.35,NE,52,0.0,6.0,31,0.00,,,0.00,WUHU216DAVISVP2,2013-04-03 22:42:00,
2013-04-03 18:47:00,43.2,13.6,30.35,NE,52,1.0,5.0,30,0.00,,,0.00,WUHU216DAVISVP2,2013-04-03 22:47:00,
2013-04-03 18:52:00,43.3,14.4,30.35,NE,52,0.0,4.0,31,0.00,,,0.00,WUHU216DAVISVP2,2013-04-03 22:52:00,
2013-04-03 18:57:00,43.6,14.7,30.36,NE,52,0.0,4.0,31,0.00,,,0.00,WUHU216DAVISVP2,2013-04-03 22:57:00,
2013-04-03 19:03:00,44.0,13.5,30.35,NE,54,0.0,4.0,29,0.00,,,0.00,WUHU216DAVISVP2,2013-04-03 23:03:00,
2013-04-03 19:08:00,44.0,13.7,30.35,NE,54,0.0,4.0,29,0.00,,,0.00,WUHU216DAVISVP2,2013-04-03 23:08:00,
2013-04-03 19:13:00,43.8,14.1,30.35,NE,53,1.0,4.0,30,0.00,,,0.00,WUHU216DAVISVP2,2013-04-03 23:13:00,
2013-04-03 19:18:00,43.6,14.7,30.35,ENE,67,2.0,4.0,31,0.00,,,0.00,WUHU216DAVISVP2,2013-04-03 23:18:00,
2013-04-03 19:24:00,43.0,14.9,30.35,ENE,67,2.0,4.0,32,0.00,,,0.00,WUHU216DAVISVP2,2013-04-03 23:24:00,
2013-04-03 19:29:00,42.5,14.5,30.34,NE,44,1.0,5.0,32,0.00,,,0.00,WUHU216DAVISVP2,2013-04-03 23:29:00,
2013-04-03 19:34:00,42.4,14.4,30.34,NE,44,2.0,5.0,32,0.00,,,0.00,WUHU216DAVISVP2,2013-04-03 23:34:00,
2013-04-03 19:39:00,42.0,14.7,30.33,NE,44,2.0,2.0,33,0.00,,,0.00,WUHU216DAVISVP2,2013-04-03 23:39:00,
2013-04-03 19:44:00,41.6,13.7,30.34,NE,44,1.0,2.0,32,0.00,,,0.00,WUHU216DAVISVP2,2013-04-03 23:44:00,
2013-04-03 19:49:00,41.2,14.7,30.33,NE,44,0.0,2.0,34,0.00,,,0.00,WUHU216DAVISVP2,2013-04-03 23:49:00,
2013-04-03 19:54:00,40.7,14.3,30.33,NE,45,0.0,3.0,34,0.00,,,0.00,WUHU216DAVISVP2,2013-04-03 23:54:00,
2013-04-03 20:00:00,40.4,14.7,30.33,NE,46,2.0,5.0,35,0.00,,,0.00,WUHU216DAVISVP2,2013-04-04 00:00:00,
2013-04-03 20:05:00,40.1,14.4,30.33,NE,48,0.0,5.0,35,0.00,,,0.00,WUHU216DAVISVP2,2013-04-04 00:05:00,
2013-04-03 20:10:00,40.1,14.4,30.33,NE,48,0.0,5.0,35,0.00,,,0.00,WUHU216DAVISVP2,2013-04-04 00:10:00,
2013-04-03 20:15:00,39.6,13.9,30.33,East,93,0.0,4.0,35,0.00,,,0.00,WUHU216DAVISVP2,2013-04-04 00:15:00,
2013-04-03 20:20:00,39.4,14.6,30.33,East,93,2.0,4.0,36,0.00,,,0.00,WUHU216DAVISVP2,2013-04-04 00:20:00,
2013-04-03 20:26:00,39.3,14.5,30.33,East,93,2.0,4.0,36,0.00,,,0.00,WUHU216DAVISVP2,2013-04-04 00:26:00,
2013-04-03 20:31:00,39.0,14.1,30.33,East,93,0.0,2.0,36,0.00,,,0.00,WUHU216DAVISVP2,2013-04-04 00:31:00,
2013-04-03 20:36:00,38.7,14.4,30.33,East,93,0.0,3.0,37,0.00,,,0.00,WUHU216DAVISVP2,2013-04-04 00:36:00,
2013-04-03 20:41:00,38.5,14.9,30.33,East,93,0.0,3.0,38,0.00,,,0.00,WUHU216DAVISVP2,2013-04-04 00:41:00,
2013-04-03 20:47:00,38.2,14.6,30.33,East,94,1.0,4.0,38,0.00,,,0.00,WUHU216DAVISVP2,2013-04-04 00:47:00,
2013-04-03 20:52:00,38.0,15.8,30.33,SE,136,2.0,5.0,40,0.00,,,0.00,WUHU216DAVISVP2,2013-04-04 00:52:00,
2013-04-03 20:57:00,37.6,17.6,30.33,ESE,115,2.0,6.0,44,0.00,,,0.00,WUHU216DAVISVP2,2013-04-04 00:57:00,
2013-04-03 21:02:00,37.2,18.2,30.33,ESE,111,0.0,6.0,46,0.00,,,0.00,WUHU216DAVISVP2,2013-04-04 01:02:00,
2013-04-03 21:07:00,36.8,18.3,30.33,SE,141,0.0,6.0,47,0.00,,,0.00,WUHU216DAVISVP2,2013-04-04 01:07:00,
2013-04-03 21:12:00,36.4,18.5,30.34,SE,141,2.0,6.0,48,0.00,,,0.00,WUHU216DAVISVP2,2013-04-04 01:12:00,
2013-04-03 21:17:00,36.2,18.3,30.34,SE,141,0.0,4.0,48,0.00,,,0.00,WUHU216DAVISVP2,2013-04-04 01:17:00,
2013-04-03 21:22:00,35.6,18.2,30.34,SE,140,0.0,4.0,49,0.00,,,0.00,WUHU216DAVISVP2,2013-04-04 01:22:00,
2013-04-03 21:27:00,35.3,18.4,30.34,SE,140,0.0,4.0,50,0.00,,,0.00,WUHU216DAVISVP2,2013-04-04 01:27:00,
2013-04-03 21:33:00,35.0,18.6,30.34,SE,140,0.0,2.0,51,0.00,,,0.00,WUHU216DAVISVP2,2013-04-04 01:33:00,
2013-04-03 21:38:00,34.6,18.3,30.34,SE,140,0.0,2.0,51,0.00,,,0.00,WUHU216DAVISVP2,2013-04-04 01:38:00,
2013-04-03 21:43:00,34.3,18.5,30.34,SE,140,0.0,1.0,52,0.00,,,0.00,WUHU216DAVISVP2,2013-04-04 01:43:00,
2013-04-03 21:48:00,34.0,18.2,30.34,SE,140,0.0,0.0,52,0.00,,,0.00,WUHU216DAVISVP2,2013-04-04 01:48:00,
2013-04-03 21:54:00,33.7,18.4,30.34,SE,140,0.0,2.0,53,0.00,,,0.00,WUHU216DAVISVP2,2013-04-04 01:54:00,
2013-04-03 21:59:00,33.5,18.6,30.34,SE,140,0.0,2.0,54,0.00,,,0.00,WUHU216DAVISVP2,2013-04-04 01:59:00,
2013-04-03 22:04:00,33.2,18.3,30.34,SE,140,0.0,2.0,54,0.00,,,0.00,WUHU216DAVISVP2,2013-04-04 02:04:00,
2013-04-03 22:09:00,32.9,18.5,30.34,SE,140,0.0,2.0,55,0.00,,,0.00,WUHU216DAVISVP2,2013-04-04 02:09:00,
2013-04-03 22:14:00,32.6,18.2,30.34,SE,140,0.0,0.0,55,0.00,,,0.00,WUHU216DAVISVP2,2013-04-04 02:14:00,
2013-04-03 22:19:00,32.3,18.4,30.34,SE,140,0.0,1.0,56,0.00,,,0.00,WUHU216DAVISVP2,2013-04-04 02:19:00,
2013-04-03 22:24:00,32.2,18.3,30.34,SE,140,0.0,1.0,56,0.00,,,0.00,WUHU216DAVISVP2,2013-04-04 02:24:00,
2013-04-03 22:30:00,31.9,18.0,30.34,SE,140,0.0,1.0,56,0.00,,,0.00,WUHU216DAVISVP2,2013-04-04 02:30:00,
2013-04-03 22:35:00,31.9,18.0,30.34,SE,140,0.0,1.0,56,0.00,,,0.00,WUHU216DAVISVP2,2013-04-04 02:35:00,
2013-04-03 22:40:00,31.9,17.6,30.34,SE,140,0.0,2.0,55,0.00,,,0.00,WUHU216DAVISVP2,2013-04-04 02:40:00,
2013-04-03 22:42:00,32.0,17.7,30.34,SE,140,0.0,2.0,55,0.00,,,0.00,WUHU216DAVISVP2,2013-04-04 02:42:00,
2013-04-03 22:45:00,32.0,17.7,30.34,SE,140,0.0,2.0,55,0.00,,,0.00,WUHU216DAVISVP2,2013-04-04 02:45:00,
2013-04-03 22:48:00,32.1,17.7,30.34,SE,140,0.0,2.0,55,0.00,,,0.00,WUHU216DAVISVP2,2013-04-04 02:48:00,
2013-04-03 22:50:00,32.1,17.7,30.34,SE,140,0.0,2.0,55,0.00,,,0.00,WUHU216DAVISVP2,2013-04-04 02:50:00,
2013-04-03 22:55:00,32.0,17.2,30.33,SE,140,0.0,1.0,54,0.00,,,0.00,WUHU216DAVISVP2,2013-04-04 02:55:00,
2013-04-03 23:00:00,31.8,17.0,30.34,SE,140,0.0,2.0,54,0.00,,,0.00,WUHU216DAVISVP2,2013-04-04 03:00:00,
2013-04-03 23:05:00,31.8,17.0,30.33,SE,140,0.0,2.0,54,0.00,,,0.00,WUHU216DAVISVP2,2013-04-04 03:05:00,
2013-04-03 23:11:00,31.7,16.9,30.33,SE,140,0.0,3.0,54,0.00,,,0.00,WUHU216DAVISVP2,2013-04-04 03:11:00,
2013-04-03 23:16:00,31.7,16.9,30.33,SE,140,0.0,3.0,54,0.00,,,0.00,WUHU216DAVISVP2,2013-04-04 03:16:00,
2013-04-03 23:21:00,31.7,16.9,30.33,SE,140,0.0,3.0,54,0.00,,,0.00,WUHU216DAVISVP2,2013-04-04 03:21:00,
2013-04-03 23:26:00,31.7,16.5,30.32,SSE,163,0.0,5.0,53,0.00,,,0.00,WUHU216DAVISVP2,2013-04-04 03:26:00,
2013-04-03 23:31:00,31.7,16.5,30.32,SSE,163,0.0,4.0,53,0.00,,,0.00,WUHU216DAVISVP2,2013-04-04 03:31:00,
2013-04-03 23:36:00,31.7,16.5,30.32,SSE,163,0.0,4.0,53,0.00,,,0.00,WUHU216DAVISVP2,2013-04-04 03:36:00,
2013-04-03 23:41:00,31.5,16.7,30.33,SSE,163,0.0,1.0,54,0.00,,,0.00,WUHU216DAVISVP2,2013-04-04 03:41:00,
2013-04-03 23:46:00,31.5,16.7,30.32,SSE,163,0.0,1.0,54,0.00,,,0.00,WUHU216DAVISVP2,2013-04-04 03:46:00,
2013-04-03 23:51:00,31.2,16.5,30.33,SSE,163,0.0,1.0,54,0.00,,,0.00,WUHU216DAVISVP2,2013-04-04 03:51:00,
2013-04-03 23:56:00,31.0,16.7,30.33,SSE,163,2.0,2.0,55,0.00,,,0.00,WUHU216DAVISVP2,2013-04-04 03:56:00,